www.pogodaiklimat.ru

Погода и климат >> Архив погоды >> Бельгия >> Ретье


ПОГОДА в Ретье

  • Прогноз погоды в Ретье
  • Монитор погоды в Ретье

АРХИВ ПОГОДЫ в Ретье

Время (UTC), дата Ветер
(напр.,м/с)
 
Видим.   Явления Облачность Т
(С)
Тd
(С)
f
(%)
Тe
(С)
Тes
(С)
Комфортность P
(гПа)
Po
(гПа)
Тmin
(С)
Tmax
(С)
R
(мм)
R24
(мм)
S
(см)
04 14.09 С 1 н/о н/о +8.6 +7.9 95 +8 +8 1034.9 1032.0
05 14.09 СВ 2 н/о н/о +9.6 +8.2 91 +8 +8 1034.4 1031.5
06 14.09 СВ 2
{4}
н/о н/о +9.8 +8.3 90 +8 +8 1034.5 1031.7 +8.5 3
07 14.09 В 2 н/о н/о +12.1 +9.3 83 +11 +11 1034.3 1031.5 31
08 14.09 В 2 н/о н/о +14.6 +10.4 76 +14 +14 1034.6 1031.8 73
09 14.09 В 3
{5}
н/о н/о +17.1 +10.6 66 +17 +17 1034.4 1031.7 117
10 14.09 В 3 н/о н/о +18.7 +9.8 56 +19 +19 1034.1 1031.3 159
11 14.09 В 2 н/о н/о +19.6 +9.9 53 +21 +21 комфорт 1033.5 1030.7 182
12 14.09 В 3 н/о н/о +20.4 +10.0 51 +22 +22 комфорт 1032.7 1029.9 196
13 14.09 С 2 н/о н/о +21.1 +9.0 46 +22 +22 комфорт 1032.1 1029.4 192
14 14.09 С 1 н/о н/о +21.5 +8.7 44 +23 +23 комфорт 1031.4 1028.7 173
15 14.09 СВ 1 н/о н/о +21.5 +8.9 44 +23 +23 комфорт 1030.3 1027.6 139
16 14.09 С 1 н/о н/о +21.3 +8.4 44 +22 +22 комфорт 1029.8 1027.1 90
17 14.09 С 1 н/о н/о +19.7 +9.1 50 +22 +22 комфорт 1029.6 1026.9 45
18 14.09 штиль 0
{4}
н/о н/о +15.8 +11.2 74 +16 +16 1029.4 1026.6 +21.7 8
19 14.09 штиль 0 н/о н/о +12.6 +10.3 86 +12 +12 1029.6 1026.7
20 14.09 штиль 0 н/о н/о +10.8 +9.2 90 +10 +10 1029.3 1026.5
21 14.09 штиль 0 н/о н/о +9.7 +8.7 93 +9 +9 1029.1 1026.3
22 14.09 штиль 0 н/о н/о +8.3 +7.6 95 +7 +7 1028.4 1025.5
23 14.09 штиль 0 н/о н/о +7.3 +7.1 99 +6 +6 1027.7 1024.8
00 15.09 штиль 0 н/о н/о +6.6 +6.4 99 +5 +5 1027.3 1024.5 141
01 15.09 штиль 0 н/о н/о +6.2 +6.1 99 +5 +5 1026.8 1023.9
02 15.09 штиль 0 н/о н/о +5.5 +5.4 99 +4 +4 1026.6 1023.7
03 15.09 штиль 0 н/о н/о +5.3 +5.2 99 +4 +4 1025.9 1023.0
04 15.09 штиль 0 н/о н/о +4.7 +4.7 100 +3 +3 1025.8 1022.9
05 15.09 штиль 0 н/о н/о +4.6 +4.6 100 +3 +3 1025.5 1022.7
06 15.09 штиль 0
{1}
н/о н/о +4.9 +4.7 99 +4 +4 1025.5 1022.7 +4.5 2
07 15.09 Ю 1 н/о н/о +9.8 +9.4 97 +9 +9 1025.4 1022.5 31
08 15.09 ЮЗ 1 н/о н/о +15.2 +11.6 79 +16 +16 1025.0 1022.2 74
09 15.09 ЮЗ 2
{4}
н/о н/о +18.1 +11.3 64 +19 +19 1025.5 1022.7 106
10 15.09 З 2 н/о н/о +20.4 +11.5 57 +23 +23 комфорт 1025.1 1022.4 138
11 15.09 ЮЗ 3 н/о н/о +22.1 +11.1 50 +24 +24 комфорт 1024.8 1022.1 182
12 15.09 ЮЗ 3 н/о н/о +23.2 +10.6 45 +25 +25 комфорт 1024.0 1021.3 195
13 15.09 ЮЗ 3 н/о н/о +24.1 +9.6 40 +25 +25 комфорт 1023.5 1020.8 189
14 15.09 З 2 н/о н/о +24.6 +8.4 36 +25 +25 комфорт 1023.1 1020.4 169
15 15.09 З 2 н/о н/о +24.4 +8.5 36 +25 +25 комфорт 1022.8 1020.1 137
16 15.09 СЗ 2 н/о н/о +23.7 +8.2 37 +24 +24 комфорт 1022.2 1019.5 95
17 15.09 СЗ 1 н/о н/о +22.0 +8.1 41 +23 +23 комфорт 1022.4 1019.7 47
18 15.09 СЗ 1
{6}
н/о н/о +18.7 +7.6 48 +20 +20 1022.8 1020.0 +24.8 9
19 15.09 СЗ 1 н/о н/о +16.1 +11.3 73 +17 +17 1023.1 1020.4
20 15.09 штиль 0 н/о н/о +14.8 +12.5 86 +14 +14 1023.4 1020.6
21 15.09 штиль 0 н/о н/о +13.3 +12.2 93 +13 +13 1023.2 1020.4
22 15.09 штиль 0 н/о н/о +12.7 +12.1 96 +12 +12 1023.3 1020.5
23 15.09 штиль 0 н/о н/о +12.5 +12.0 97 +12 +12 1022.8 1020.0
00 16.09 штиль 0 н/о н/о +12.0 +11.5 97 +11 +11 1022.6 1019.8 138
01 16.09 С 1 н/о н/о +12.2 +11.9 98 +12 +12 1022.6 1019.8
02 16.09 штиль 0 н/о н/о +11.6 +11.4 99 +11 +11 1022.5 1019.7
03 16.09 штиль 0 н/о н/о +11.8 +11.5 98 +11 +11 1021.7 1018.9
04 16.09 штиль 0 н/о н/о +12.0 +11.8 99 +11 +11 1020.9 1018.1
05 16.09 ЮВ 1 н/о н/о +12.3 +12.1 99 +12 +12 1020.9 1018.1
06 16.09 Ю 1
{2}
н/о н/о +13.1 +12.8 98 +13 +13 1020.5 1017.7 +11.5
07 16.09 СЗ 1 н/о н/о +14.0 +13.6 97 +14 +14 1020.8 1018.0 4
08 16.09 ЮЗ 1 н/о н/о +15.1 +14.0 93 +16 +16 1020.9 1018.1 19
09 16.09 ЮЗ 2
{3}
н/о н/о +16.8 +13.7 82 +17 +17 1020.7 1018.0 41
10 16.09 З 2 н/о н/о +17.9 +13.1 73 +18 +18 1020.7 1018.0 54
11 16.09 СЗ 1 н/о н/о +18.7 +14.0 74 +21 +21 комфорт 1020.6 1017.9 69
12 16.09 СЗ 2 н/о н/о +19.7 +14.6 72 +22 +22 комфорт 1020.6 1017.9 89
13 16.09 СЗ 2 н/о н/о +19.7 +15.2 75 +22 +22 комфорт 1020.2 1017.5 42
14 16.09 СЗ 2 н/о н/о +17.2 +16.1 93 +18 +18 1020.7 1018.0 19
15 16.09 С 2 н/о н/о +15.8 +15.0 95 +16 +16 1021.3 1018.6 17
16 16.09 н/о н/о +16.1 +15.0 93 1021.1 1018.3 31
17 16.09 штиль 0 н/о н/о +16.1 +14.7 91 +16 +16 1021.3 1018.5 20
18 16.09 штиль 0
{5}
н/о н/о +15.4 +14.3 93 +15 +15 1021.2 1018.5 +20.1 5
19 16.09 штиль 0 н/о н/о +14.7 +14.0 96 +14 +14 1021.4 1018.6
20 16.09 штиль 0 н/о н/о +14.5 +14.1 97 +14 +14 1021.9 1019.1
21 16.09 штиль 0 н/о н/о +14.4 +13.9 97 +14 +14 1022.1 1019.3
22 16.09 СЗ 1 н/о н/о +14.2 +13.5 96 +14 +14 1022.3 1019.5
23 16.09 СЗ 1 н/о н/о +14.0 +12.9 93 +14 +14 1022.4 1019.6
00 17.09 З 1 н/о н/о +13.7 +12.9 95 +14 +14 1022.3 1019.5 41
01 17.09 штиль 0 н/о н/о +13.5 +12.7 95 +13 +13 1022.0 1019.3
02 17.09 штиль 0 н/о н/о +13.2 +12.5 96 +13 +13 1022.0 1019.2
03 17.09 СЗ 1 н/о н/о +11.7 +11.2 97 +11 +11 1022.0 1019.2
04 17.09 штиль 0 н/о н/о +9.3 +8.9 97 +8 +8 1022.1 1019.3
05 17.09 штиль 0 н/о н/о +7.5 +7.3 99 +6 +6 1022.3 1019.4
06 17.09 штиль 0
{2}
н/о н/о +6.7 +6.6 99 +6 +6 1022.4 1019.5 +6.7
07 17.09 штиль 0 н/о н/о +10.6 +10.2 97 +10 +10 1022.6 1019.8 25
08 17.09 З 1 н/о н/о +13.9 +11.0 83 +14 +14 1023.1 1020.4 71
09 17.09 З 2
{4}
н/о н/о +16.1 +10.4 69 +16 +16 1023.0 1020.3 107
10 17.09 З 2 н/о н/о +16.5 +9.6 64 +17 +17 1023.4 1020.7 88
11 17.09 СЗ 3 н/о н/о +17.5 +9.4 59 +18 +18 1023.1 1020.4 134
12 17.09 СЗ 2 н/о н/о +17.2 +9.7 61 +18 +18 1022.8 1020.0 93
13 17.09 СЗ 3 н/о н/о +17.5 +10.2 62 +18 +18 1022.7 1019.9 93
14 17.09 СЗ 4 н/о н/о +17.7 +10.1 61 +17 +17 1022.9 1020.1 120
15 17.09 С 4 н/о н/о +17.6 +8.7 56 +17 +17 1023.3 1020.5 94
16 17.09 СЗ 3 н/о н/о +17.5 +8.1 54 +18 +18 1023.5 1020.7 76
17 17.09 С 3 н/о н/о +15.5 +8.2 62 +15 +15 1024.0 1021.2 39
18 17.09 С 2
{9}
н/о н/о +13.5 +6.1 61 +13 +13 1024.5 1021.7 +18.3 7
19 17.09 СЗ 1 н/о н/о +11.4 +5.6 67 +11 +11 1025.4 1022.5
20 17.09 СЗ 1 н/о н/о +8.4 +5.4 81 +8 +8 1025.7 1022.9
21 17.09 штиль 0 н/о н/о +6.7 +5.2 90 +6 +6 1026.1 1023.3
22 17.09 штиль 0 н/о н/о +5.3 +4.4 94 +4 +4 1026.4 1023.5
23 17.09 штиль 0 н/о н/о +4.9 +4.6 98 +4 +4 1026.7 1023.8
00 18.09 штиль 0 н/о н/о +4.4 +4.2 99 +3 +3 1027.1 1024.2 95
01 18.09 штиль 0 н/о н/о +3.5 +3.5 100 +2 +2 1026.9 1024.0
02 18.09 штиль 0 н/о н/о +3.2 +3.1 99 +2 +2 1026.9 1024.0
03 18.09 штиль 0 н/о н/о +2.7 +2.7 100 +1 +1 1027.2 1024.3
04 18.09 штиль 0 н/о н/о +2.4 +2.4 100 +1 +1 1027.1 1024.2
05 18.09 штиль 0 н/о н/о +2.1 +2.1 100 +1 +1 1027.1 1024.2
06 18.09 штиль 0
{1}
н/о н/о +2.1 +2.1 100 +1 +1 1027.6 1024.7 +1.9 1
07 18.09 штиль 0 н/о н/о +6.0 +5.5 97 +5 +5 1028.2 1025.3 26
08 18.09 СЗ 1 н/о н/о +11.1 +8.9 86 +11 +11 1028.8 1026.0 68
09 18.09 СВ 1
{3}
н/о н/о +15.0 +9.4 69 +16 +16 1028.8 1026.0 110
10 18.09 СЗ 2 н/о н/о +15.7 +7.9 60 +16 +16 1028.9 1026.1 122
11 18.09 С 2 н/о н/о +15.8 +8.1 60 +16 +16 1028.9 1026.1 95
12 18.09 СЗ 2 н/о н/о +16.8 +6.6 51 +17 +17 1028.2 1025.4 166
13 18.09 С 2 н/о н/о +17.3 +7.6 53 +18 +18 1027.8 1025.0 130
14 18.09 С 2 н/о н/о +16.8 +6.9 52 +17 +17 1027.8 1025.1 68
15 18.09 С 2 н/о н/о +15.9 +7.6 58 +16 +16 1027.9 1025.1 51
16 18.09 С 3 н/о н/о +15.7 +7.5 58 +15 +15 1027.7 1025.0 47
17 18.09 С 2 н/о н/о +16.1 +7.7 57 +16 +16 1027.7 1025.0 49
18 18.09 С 1
{7}
н/о н/о +13.8 +7.6 66 +14 +14 1028.1 1025.3 +17.5 7
19 18.09 С 1 н/о н/о +11.1 +6.7 74 +11 +11 1029.0 1026.1
20 18.09 СЗ 1 н/о н/о +9.6 +6.8 83 +9 +9 1029.3 1026.5
21 18.09 штиль 0 н/о н/о +8.3 +6.9 91 +7 +7 1029.6 1026.7
22 18.09 штиль 0 н/о н/о +7.3 +6.5 95 +6 +6 1029.9 1027.1
23 18.09 штиль 0 н/о н/о +5.9 +5.5 97 +5 +5 1030.4 1027.5
00 19.09 СЗ 1 н/о н/о +4.8 +4.5 98 +3 +3 1030.6 1027.7 94
01 19.09 штиль 0 н/о н/о +4.3 +4.2 99 +3 +3 1030.5 1027.6
02 19.09 штиль 0 н/о н/о +3.5 +3.5 100 +2 +2 1030.5 1027.6
03 19.09 штиль 0 н/о н/о +5.5 +5.4 99 +4 +4 1030.7 1027.8
04 19.09 штиль 0 н/о н/о +5.8 +5.8 100 +5 +5 1030.5 1027.6
05 19.09 штиль 0 н/о н/о +5.9 +5.9 100 +5 +5 1030.7 1027.8
06 19.09 штиль 0
{2}
н/о н/о +6.7 +6.7 100 +6 +6 1031.1 1028.3 +3.3 1
07 19.09 штиль 0 н/о н/о +8.5 +7.9 96 +8 +8 1031.5 1028.6 22
08 19.09 СВ 1 н/о н/о +12.2 +10.0 86 +12 +12 1031.8 1029.0 64
09 19.09 С 1
{3}
н/о н/о +14.7 +8.9 68 +15 +15 1032.1 1029.3 108
10 19.09 СВ 1 н/о н/о +15.3 +8.4 63 +16 +16 1032.3 1029.5 129
11 19.09 С 1 н/о н/о +16.2 +7.8 57 +17 +17 1031.9 1029.1 164
12 19.09 С 1 н/о н/о +16.3 +7.7 57 +17 +17 1031.5 1028.7 118
13 19.09 СВ 2 н/о н/о +16.4 +8.2 58 +17 +17 1031.3 1028.5 75
14 19.09 С 1 н/о н/о +16.5 +8.4 59 +17 +17 1031.1 1028.3 64
15 19.09 СВ 2 н/о н/о +17.2 +7.2 52 +18 +18 1030.6 1027.9 101
16 19.09 СВ 2 н/о н/о +16.8 +6.9 52 +17 +17 1030.4 1027.6 77
17 19.09 С 1 н/о н/о +15.8 +6.5 54 +17 +17 1030.5 1027.7 43
18 19.09 штиль 0
{5}
н/о н/о +12.4 +7.0 70 +12 +12 1030.8 1027.9 +17.2 6
19 19.09 штиль 0 н/о н/о +9.3 +7.4 88 +8 +8 1031.0 1028.2
20 19.09 штиль 0 н/о н/о +8.2 +7.2 93 +7 +7 1031.2 1028.3
21 19.09 штиль 0 н/о н/о +6.9 +5.9 93 +6 +6 1031.5 1028.7
22 19.09 штиль 0 н/о н/о +6.1 +5.5 96 +5 +5 1031.5 1028.6
23 19.09 С 1 н/о н/о +5.8 +5.4 97 +4 +4 1031.2 1028.3
00 20.09 С 1 н/о н/о +5.2 +5.1 99 +4 +4 1031.1 1028.2 100
01 20.09 С 1 н/о н/о +4.9 +4.7 99 +3 +3 1031.1 1028.2
02 20.09 С 1 н/о н/о +3.8 +3.8 100 +2 +2 1030.8 1027.9
03 20.09 штиль 0 н/о н/о +4.0 +3.9 99 +3 +3 1030.5 1027.6
04 20.09 СВ 1 н/о н/о +3.1 +3.0 99 +1 +1 1030.3 1027.3
05 20.09 С 1 н/о н/о +3.4 +3.3 99 +2 +2 1029.9 1027.0
06 20.09 штиль 0
{2}
н/о н/о +3.2 +3.2 100 +2 +2 1030.0 1027.1 +2.9 1
07 20.09 штиль 0
{1}
н/о н/о +7.0 +6.5 97 +6 +6 1030.2 1027.3
08 20.09 СВ 1 н/о н/о +10.9 +9.4 90 +11 +11 1030.4 1027.6 61
09 20.09 В 3
{4}
н/о н/о +14.7 +7.0 60 +14 +14 1030.3 1027.5 106
10 20.09 В 3 н/о н/о +16.3 +6.1 51 +16 +16 1029.8 1027.1 138
11 20.09 В 3 н/о н/о +17.1 +5.7 47 +17 +17 1028.9 1026.1 164
12 20.09 В 3 н/о н/о +17.6 +5.1 44 +18 +18 1028.4 1025.7 173
14 20.09 В 4 н/о н/о +19.4 +3.5 35 +20 +20 1026.9 1024.2 158
15 20.09 В 4 н/о н/о +19.3 +3.9 36 +20 +20 1026.2 1023.5 103
16 20.09 В 3 н/о н/о +19.2 +5.0 39 +20 +20 1025.6 1022.9 80
17 20.09 СВ 2 н/о н/о +17.9 +4.9 42 +18 +18 1025.2 1022.4 38
18 20.09 СВ 2
{7}
н/о н/о +15.6 +5.3 50 +16 +16 1025.0 1022.2 +19.4 4
19 20.09 В 1 н/о н/о +11.6 +5.3 65 +12 +12 1024.6 1021.8
21 20.09 СВ 2 н/о н/о +13.1 +6.1 62 +13 +13 1024.1 1021.3
22 20.09 СВ 2 н/о н/о +11.3 +6.1 70 +10 +10 1023.6 1020.7
23 20.09 СВ 2 н/о н/о +10.9 +5.7 70 +10 +10 1023.0 1020.1
00 21.09 СВ 1 н/о н/о +8.3 +4.9 79 +8 +8 1022.7 1019.9 122
02 21.09 СВ 1 н/о н/о +6.9 +4.6 85 +6 +6 1021.7 1018.8
03 21.09 СВ 1 н/о н/о +5.1 +3.9 92 +4 +4 1021.6 1018.7

 

Местоположение метеостанции Ретье (Бельгия): широта 51.22 долгота 5.03 высота над уровнем моря 19 м.

В архиве по умолчанию представлена погода в Ретье за последнюю неделю. Архивные данные за месяц целиком и за предыдущие месяцы, начиная с января 2011 года, Вы можете получить, выбрав интересующий диапазон дат из раскрывающегося списка и нажав кнопку "Ввод!".


*Определитесь, кто Вы:
робот инопланетянин человек

Внимание! Время в таблицах - всемирное. Для получения местного времени необходимо прибавить поправку, которая равна 1 ч.

Смотрите также архив погоды в соседних городах и на ближайших метеорологических станциях:

Погода в Шаффене (Бельгия) (25 км)
Погода в Кляйн-Брогеле (Бельгия) (31 км)
Погода в Эйндховене (Нидерланды) (37 км)
Погода в Антверпене (Бельгия) (39 км)
Погода в Гилзе-эн-Рейене (Нидерланды) (40 км)
Погода в Дипенбеке (Бельгия) (44 км)
Погода в Брюсселе (Бельгия) (50 км)
Погода в Элле (Нидерланды) (52 км)
Погода в Вунстдрехте (Нидерланды) (55 км)
Погода в Бовешене (Бельгия) (55 км)

Пояснения к столбцам:

Ветер - указаны скорость ветра в м/с - средняя за 10 мин, порывы в срок и между сроками (в фигурных скобках) и направление, откуда дует ветер: С - северный, СВ - северо-восточный, В - восточный, ЮВ - юго-восточный, Ю - южный, ЮЗ - юго-западный, З - западный, СЗ - северо-западный.
Видимость - горизонтальная дальность видимости в метрах или километрах. При видимости от 1 до 10 км при отсутствии осадков обычно наблюдается дымка, при ухудшении видимости до 1 км и менее - туман. В сухую погоду видимость может ухудшаться дымом, пылью или мглою.
Явления - указаны атмосферные явления, наблюдавшиеся в срок или в последний час перед сроком; фигурными скобками обозначены явления, наблюдавшиеся между сроками (за 1-3 часа до срока); квадратными скобками обозначены град или гололедные отложения с указанием их диаметра в мм.
Облачность - указаны через наклонную черту общая и нижняя облачность в баллах и высота нижней границы облаков в метрах; квадратными скобками обозначены формы облаков: Ci - перистые, Cs - перисто-слоистые, Cc - перисто-кучевые, Ac - высококучевые, As - высокослоистые, Sc - слоисто-кучевые, Ns - слоисто-дождевые, Cu - кучевые, Cb - кучево-дождевые. Подробнее классификацию облаков см. в Атласе облаков (PDF).
T - Температура воздуха - температура, измеренная на высоте 2 м над землей.
Td - Температура точки росы - температура, при понижении до которой содержащийся в воздухе водяной пар достигнет насыщения.
f - Относительная влажность воздуха - влажноcть воздуха, измеренная на высоте 2 м над землей.
Te - Эффективная температура - температура, которую ощущает одетый по сезону человек в тени. Характеристика душности погоды. При расчете учитывается влияние влажности воздуха и скорости ветра на теплоощущения человека.
Tes - Эффективная температура на солнце - температура, которую ощущает человек, с поправкой на солнечный нагрев. Характеристика знойности погоды. Зависит от высоты солнца над горизонтом, облачности и скорости ветра. Ночью, в пасмурную погоду, а также при ветре 12 м/с и более поправка равна нулю.
P - Атмосферное давление - приведенное к уровню моря атмосферное давление.
Po - Атмосферное давление - измеренное на уровне метеостанции атмосферное давление.
Tmin - Минимальная температура - минимум температуры воздуха на высоте 2 м над землей.
Tmax - Максимальная температура - максимум температуры воздуха на высоте 2 м над землей.
R - Количество осадков - Количество выпавших осадков за период времени, мм. При наведении курсора мыши на число - период времени, за который выпало указанное количество осадков.
R24 - Количество осадков - Количество выпавших осадков за 24 часа, мм.
S - Снежный покров - Высота снежного покрова, см. При наведении курсора мыши на число - состояние снежного покрова и степень покрытия местности в баллах.